TimeCDT,TemperatureF,Dew PointF,Humidity,Sea Level PressureIn,VisibilityMPH,Wind Direction,Wind SpeedMPH,Gust SpeedMPH,PrecipitationIn,Events,Conditions,WindDirDegrees,DateUTC
12:23 AM,46.4,44.6,93,30.22,2.5,Calm,Calm,-,N/A,,Clear,0,2013-08-04 05:23:00
12:30 AM,46.4,44.6,93,30.22,10.0,Calm,Calm,-,N/A,,Clear,0,2013-08-04 05:30:00
12:53 AM,46.0,44.1,93,30.23,3.0,Calm,Calm,-,N/A,,Clear,0,2013-08-04 05:53:00
12:56 AM,44.6,44.6,100,30.23,1.8,Calm,Calm,-,N/A,,Clear,0,2013-08-04 05:56:00
1:07 AM,46.4,44.6,93,30.23,0.5,Calm,Calm,-,N/A,Fog,Fog,0,2013-08-04 06:07:00
1:17 AM,46.4,44.6,93,30.23,2.0,Calm,Calm,-,N/A,,Clear,0,2013-08-04 06:17:00
1:24 AM,46.4,44.6,93,30.23,9.0,Calm,Calm,-,N/A,,Clear,0,2013-08-04 06:24:00
1:53 AM,46.9,44.1,90,30.24,10.0,Calm,Calm,-,N/A,,Clear,0,2013-08-04 06:53:00
2:53 AM,48.9,46.9,93,30.25,10.0,Calm,Calm,-,N/A,,Clear,0,2013-08-04 07:53:00
3:53 AM,46.9,46.0,97,30.24,10.0,Calm,Calm,-,N/A,,Clear,0,2013-08-04 08:53:00
4:33 AM,46.4,44.6,93,30.23,1.8,Calm,Calm,-,N/A,,Clear,0,2013-08-04 09:33:00
4:42 AM,46.4,46.4,100,30.23,4.0,Calm,Calm,-,N/A,,Clear,0,2013-08-04 09:42:00
4:45 AM,44.6,44.6,100,30.23,1.8,Calm,Calm,-,N/A,,Clear,0,2013-08-04 09:45:00
4:53 AM,45.0,43.0,93,30.24,1.0,Calm,Calm,-,N/A,,Clear,0,2013-08-04 09:53:00
4:58 AM,44.6,44.6,100,30.24,4.0,Calm,Calm,-,N/A,,Clear,0,2013-08-04 09:58:00
5:17 AM,44.6,42.8,93,30.23,2.0,Calm,Calm,-,N/A,,Clear,0,2013-08-04 10:17:00
5:34 AM,42.8,42.8,100,30.23,0.8,Calm,Calm,-,N/A,,Mist,0,2013-08-04 10:34:00
5:50 AM,41.0,39.2,93,30.23,0.2,Calm,Calm,-,N/A,Fog,Fog,0,2013-08-04 10:50:00
5:53 AM,41.0,39.9,96,30.25,0.2,Calm,Calm,-,N/A,Fog,Fog,0,2013-08-04 10:53:00
6:07 AM,42.8,41.0,93,30.23,0.2,Calm,Calm,-,N/A,Fog,Fog,0,2013-08-04 11:07:00
6:45 AM,44.6,42.8,93,30.24,1.2,West,3.5,-,N/A,,Partly Cloudy,260,2013-08-04 11:45:00
6:47 AM,44.6,42.8,93,30.24,4.0,Calm,Calm,-,N/A,,Partly Cloudy,0,2013-08-04 11:47:00
6:53 AM,46.0,45.0,96,30.25,10.0,Calm,Calm,-,N/A,,Partly Cloudy,0,2013-08-04 11:53:00
7:53 AM,55.9,50.0,80,30.27,10.0,Calm,Calm,-,N/A,,Clear,0,2013-08-04 12:53:00
8:53 AM,59.0,48.0,67,30.28,10.0,Calm,Calm,-,N/A,,Clear,0,2013-08-04 13:53:00
9:53 AM,62.1,44.1,52,30.27,10.0,Calm,Calm,-,N/A,,Clear,0,2013-08-04 14:53:00
10:53 AM,63.0,42.1,46,30.28,10.0,Calm,Calm,-,N/A,,Scattered Clouds,0,2013-08-04 15:53:00
11:53 AM,64.9,42.1,43,30.27,10.0,Calm,Calm,-,N/A,,Mostly Cloudy,0,2013-08-04 16:53:00
12:53 PM,66.9,39.9,37,30.24,10.0,South,4.6,-,N/A,,Scattered Clouds,190,2013-08-04 17:53:00
1:53 PM,68.0,41.0,37,30.23,10.0,Variable,3.5,-,N/A,,Partly Cloudy,0,2013-08-04 18:53:00
2:53 PM,66.9,42.1,40,30.22,10.0,North,-9999.0,-,N/A,,Mostly Cloudy,0,2013-08-04 19:53:00
3:53 PM,69.1,43.0,39,30.20,10.0,WSW,6.9,-,N/A,,Mostly Cloudy,250,2013-08-04 20:53:00
4:53 PM,69.1,45.0,42,30.19,10.0,SW,5.8,-,N/A,,Partly Cloudy,230,2013-08-04 21:53:00
5:53 PM,66.9,45.0,45,30.18,10.0,SSW,3.5,-,N/A,,Clear,200,2013-08-04 22:53:00
6:53 PM,66.0,48.0,52,30.16,10.0,Calm,Calm,-,N/A,,Clear,0,2013-08-04 23:53:00
7:53 PM,64.0,52.0,65,30.14,10.0,Calm,Calm,-,N/A,,Mostly Cloudy,0,2013-08-05 00:53:00
8:53 PM,55.0,51.1,86,30.14,10.0,Calm,Calm,-,N/A,,Clear,0,2013-08-05 01:53:00
9:53 PM,53.1,50.0,89,30.13,10.0,Calm,Calm,-,N/A,,Clear,0,2013-08-05 02:53:00
10:53 PM,53.1,51.1,93,30.12,10.0,Calm,Calm,-,N/A,,Overcast,0,2013-08-05 03:53:00
11:53 PM,53.1,51.1,93,30.12,10.0,Calm,Calm,-,N/A,,Mostly Cloudy,0,2013-08-05 04:53:00